sat.trackr.live / text

‹ back to catalog

STARLINK-4382

NORAD 53194 · 2022-084F

PAYLOAD ACTIVE UNKNOWN

§ Identity

Operator
Country
US
Launch date
2022-07-22
Launch site
AFWTR
Launch vehicle
Mass (kg)
RCS (m²)

Purposes: comms

External: N2YO · Heavens-Above · Gunter

§ Orbital elements

Epoch: 2026-05-25T02:40:57.250272Z

Period
95.63 min
Inclination
97.4483°
Eccentricity
0.0001932
Mean motion
15.05740610 rev/d
Perigee alt
547.9 km
Apogee alt
550.6 km
Semi-major
6,927.4 km
B*
-1.1220e-3
RAAN
206.1395°
Arg perigee
149.3828°
Mean anomaly
210.7513°
Rev number
21,087

§ Raw data

STARLINK-43821 53194U 22084F   26145.11177373 -.00016250  00000+0 -11220-2 0  99992 53194  97.4483 206.1395 0001932 149.3828 210.7513 15.05740610210871

JSON: /api/v1/satellites/53194 · /tle

For live sub-satellite position, see the globe view (requires WebGL).

§ Visibility from observer

Set your observer location to see the next 7 days of passes ≥ 10°. The values pass through the URL so the page stays shareable.

No JS? Fill the form by hand. The geolocation button needs JavaScript.